Location: Hillern
(53.0557°N, 9.8577°E)
Time: 00:17:48
(UTC+00:00)

H-2A R/B - Pass Details

Date: 19 May 2025
Orbit: 492 x 574 km, 98.2° (Epoch: 22 June)

Event Time Altitude Azimuth Distance (km) Brightness Sun altitude
Exits shadow 22:52:56 11° 111° (ESE) 1,739 4.6 -16.8°
Maximum altitude 22:55:46 23° 61° (ENE) 1,197 4.3 -16.8°
Drops below altitude 10° 22:58:50 10° 9° (N) 1,799 6.2 -16.9°
Sets 23:01:14 0° 355° (N) 2,678 7.7 -16.9°
